Theta_e
320 322 332 333 341 336 342 341 338 348 348 343 346 345 343 348 347 347 345 346 343 339 336 340 337 334 322 324 338 340 341 341 335 335 336 336 335 335 341 344 337 342 344 344 343 343 343 343 340
320 328 329 334 340 342 343 338 341 343 342 339 339 339 345 351 350 347 346 345 343 334 334 334 338 332 320 330 338 341 334 332 331 332 333 331 331 333 332 336 343 340 344 344 343 343 339 336 337
325 327 329 337 339 341 342 341 348 343 341 346 341 340 345 350 348 346 346 345 340 332 332 332 334 324 320 331 337 334 330 329 328 329 327 325 328 331 335 338 338 341 341 344 343 336 334 333 336
319 324 327 332 338 337 340 339 348 344 342 340 339 343 341 347 347 346 346 343 337 331 332 338 330 323 321 330 332 332 328 327 327 326 325 326 325 327 331 337 338 338 341 341 341 336 335 338 339
320 323 331 338 341 339 338 341 343 344 345 341 340 343 343 345 345 346 346 341 334 332 335 334 331 323 322 329 333 329 328 327 327 327 328 329 329 330 328 330 335 332 333 334 335 335 333 338 338
320 320 326 335 337 338 339 339 341 344 343 343 341 341 341 344 345 345 344 339 331 330 334 334 333 324 324 331 330 329 329 327 326 327 328 328 328 329 331 330 330 331 331 331 332 331 331 336 337
320 319 325 332 339 336 340 337 343 344 346 345 340 343 341 344 344 344 341 337 329 331 332 333 332 327 326 329 329 328 328 326 327 328 328 328 328 328 328 329 329 330 330 329 330 331 333 336 336
317 318 324 329 333 340 336 340 342 345 347 341 338 344 345 341 342 341 340 335 331 333 330 330 331 331 331 331 329 328 328 327 327 329 329 328 328 328 328 327 327 329 328 330 331 331 333 334 332
314 317 320 324 335 338 335 336 343 343 345 344 341 339 338 341 341 340 339 337 337 335 330 329 330 331 330 331 330 328 328 328 328 330 330 330 330 329 330 329 328 327 327 328 328 328 327 327 328
316 316 320 320 331 335 334 335 343 347 347 346 342 338 339 340 340 339 338 337 338 336 333 329 329 329 329 329 330 328 328 328 329 330 332 333 333 333 333 332 331 330 329 329 329 330 330 330 334
315 318 317 319 320 326 324 325 339 346 348 345 342 339 339 340 339 339 338 336 330 331 331 328 327 328 326 327 328 328 328 328 330 331 333 335 335 336 336 335 333 332 332 332 332 331 330 331 331
319 316 317 318 319 319 320 320 336 343 343 342 338 336 338 340 339 339 338 337 334 329 326 326 325 326 326 325 327 327 328 328 330 333 333 334 335 336 337 338 338 336 336 335 335 335 335 334 333
317 317 316 317 315 314 317 326 334 343 342 339 336 335 338 339 338 339 339 337 334 331 327 324 324 324 325 325 325 327 327 328 333 335 335 335 334 336 337 338 338 338 337 337 336 336 335 333 333
316 317 316 315 316 315 331 336 338 339 339 337 337 336 337 338 338 338 337 338 338 336 328 324 323 322 324 324 325 325 327 327 328 335 337 335 336 337 338 339 339 339 338 336 336 334 334 333 333
316 317 316 318 320 330 334 338 338 343 338 338 337 336 335 335 337 337 336 337 338 337 329 323 322 323 322 323 323 324 326 327 328 329 332 334 337 338 339 340 339 339 338 337 336 335 334 333 333
318 315 317 318 319 334 334 338 336 342 340 339 338 338 337 335 333 335 336 336 337 337 335 330 325 322 323 322 323 325 325 327 329 332 334 337 338 338 339 340 340 340 339 339 338 334 334 333 333
313 316 318 321 318 329 330 330 334 343 342 342 340 339 338 338 336 333 333 335 336 336 336 335 332 325 323 322 323 328 329 327 329 331 334 337 338 339 339 340 340 340 340 339 339 334 334 333 332
315 318 318 320 319 318 322 328 333 342 345 344 342 341 340 339 338 337 334 334 334 335 336 336 335 332 329 326 326 330 332 331 328 330 333 335 336 337 339 339 341 341 341 339 340 337 334 333 332
316 318 318 317 317 318 318 316 319 334 344 344 343 342 340 340 338 338 338 335 333 331 333 334 334 334 332 331 330 331 332 332 332 331 332 334 335 336 337 339 341 341 341 337 340 339 336 333 333
316 317 316 315 316 317 318 319 328 332 340 343 343 342 340 338 337 336 338 337 332 331 331 331 332 332 332 332 332 331 331 332 332 332 332 333 335 336 338 339 341 341 340 340 339 338 337 335 335
315 315 316 317 315 316 319 317 321 335 334 336 337 337 337 337 336 335 334 335 335 331 328 329 330 331 332 332 331 331 332 332 333 333 335 334 335 335 336 339 340 341 342 340 340 339 336 336 335
315 313 316 316 316 318 316 317 315 323 334 336 335 334 333 333 332 331 332 332 333 334 333 330 330 330 331 331 332 332 333 333 333 335 334 335 336 335 336 338 340 342 341 342 338 336 337 337 334
316 314 315 316 314 316 317 315 317 327 341 346 347 342 332 333 332 332 329 331 333 333 333 333 331 330 331 331 332 332 333 334 333 333 334 334 335 338 338 340 341 342 342 342 335 335 338 338 335
317 317 313 312 312 316 317 316 321 336 344 351 346 345 345 343 341 340 340 337 331 330 331 332 331 330 331 332 332 332 332 333 334 334 335 334 334 335 338 338 339 341 342 341 337 337 336 334 337
315 314 315 318 317 318 318 336 341 346 352 349 342 338 336 336 338 337 336 338 340 340 335 329 329 329 330 331 333 333 334 335 336 338 339 340 340 339 337 339 339 342 341 340 338 337 336 338 337
315 315 316 321 320 319 319 341 347 348 346 342 336 332 331 330 329 330 332 335 340 339 340 342 341 333 331 332 335 335 337 337 336 334 334 333 332 335 339 333 340 339 340 339 337 336 337 337 336
318 316 315 316 315 317 323 336 337 341 343 343 340 336 334 332 330 331 334 339 338 338 339 342 342 340 334 336 338 338 338 337 333 331 331 333 335 331 329 339 339 338 337 336 336 337 337 334 334
317 315 318 315 319 322 331 336 340 342 343 343 342 337 333 332 334 336 337 338 339 340 340 342 344 340 339 341 340 339 338 335 334 335 332 332 331 334 334 334 333 333 334 335 334 334 334 334 331
318 318 315 315 317 320 332 340 339 340 339 343 342 339 336 336 339 340 338 338 336 337 338 338 338 340 340 338 337 335 335 333 333 331 331 330 330 331 332 334 335 335 334 333 333 331 329 328 323
317 316 316 318 321 321 332 340 340 337 337 338 345 344 345 344 344 342 338 336 334 335 336 337 337 336 336 336 337 338 337 335 333 333 331 335 336 335 333 332 332 331 331 331 329 324 319 318 318
Wind_Speed
6 7 4 2 4 5 3 2 1 1 5 2 7 4 6 3 2 3 4 10 25 26 22 19 17 16 16 18 18 16 16 14 14 14 13 13 11 11 11 11 10 11 12 13 12 11 10 9 10
7 5 1 2 5 5 5 4 3 1 2 6 8 3 4 1 3 6 12 14 26 27 23 20 17 17 18 18 17 15 14 13 13 13 13 12 11 11 11 10 9 10 11 13 13 12 11 10 10
7 1 3 4 3 2 4 2 4 3 3 3 3 5 3 2 2 11 9 23 29 26 23 21 19 18 18 18 15 15 13 13 12 12 12 11 10 10 11 10 10 10 9 10 12 12 11 11 10
3 4 4 4 2 4 3 3 5 4 2 4 4 6 4 3 10 10 25 27 28 25 23 20 19 18 18 17 15 15 14 13 12 12 12 11 11 10 11 10 10 10 9 8 9 10 11 12 12
3 3 4 3 4 4 3 2 8 5 2 3 2 2 3 2 7 21 26 31 28 26 23 20 19 18 18 17 15 14 14 13 12 12 11 11 10 10 10 10 9 11 11 11 10 8 9 10 9
4 3 4 1 4 4 3 5 4 5 3 3 4 4 2 4 18 25 27 30 26 27 22 20 18 18 18 16 15 14 13 13 13 12 11 10 9 8 9 9 9 8 10 11 10 10 10 11 8
5 4 3 3 3 4 1 6 6 6 5 2 8 4 1 4 13 23 29 28 27 24 22 20 19 18 17 17 16 15 14 14 14 13 11 10 9 8 7 7 8 7 7 8 8 9 9 11 9
4 4 2 3 2 3 3 2 4 3 3 4 5 4 5 6 19 22 25 25 25 24 22 21 20 19 18 17 16 16 15 15 14 13 11 9 8 7 7 6 6 6 8 8 8 8 8 8 7
3 4 1 3 2 2 1 3 3 2 6 2 5 6 6 27 23 22 21 21 22 22 23 22 21 20 19 18 17 16 15 15 15 14 11 9 7 5 5 6 5 5 5 6 7 7 6 6 5
4 3 5 4 3 0 1 3 8 3 3 3 4 7 25 28 24 20 18 18 20 25 26 24 23 22 21 20 18 17 17 17 16 15 13 11 7 4 2 2 2 3 3 3 4 5 4 5 4
3 5 5 4 7 5 3 3 9 8 4 7 8 14 16 22 19 18 20 29 38 32 28 28 26 24 24 23 21 20 19 18 18 16 15 13 11 8 5 3 1 1 2 1 1 1 1 1 3
2 5 4 5 4 3 4 2 5 8 9 5 13 21 16 17 15 20 21 22 25 30 32 31 29 28 27 24 24 22 22 20 20 18 17 15 13 10 9 7 5 5 5 6 5 5 5 3 4
4 4 5 5 9 7 1 7 6 9 1 8 17 17 16 16 20 24 27 29 28 29 33 34 32 31 29 28 26 25 24 23 22 21 19 17 15 14 11 10 9 9 9 9 9 9 8 6 5
4 4 6 5 8 3 2 1 7 5 8 9 17 16 14 15 20 21 20 25 30 30 33 35 35 34 32 31 29 27 26 25 24 24 22 20 18 16 14 14 13 12 12 11 11 12 11 9 8
2 5 6 3 2 2 6 1 8 5 8 10 12 14 13 15 19 22 28 29 36 36 33 36 36 37 35 34 32 30 28 27 27 26 25 24 22 20 18 16 16 15 12 11 12 13 15 13 12
2 4 4 5 4 3 4 8 2 7 12 10 11 11 14 14 20 27 28 35 38 37 37 36 37 38 38 37 35 33 31 29 29 28 27 26 25 24 22 20 19 16 15 17 15 13 17 16 14
6 3 3 4 4 4 3 6 4 9 10 9 10 10 12 12 13 27 31 36 40 42 39 38 38 39 40 38 36 35 32 32 31 31 29 28 27 26 26 24 23 20 18 18 16 16 16 17 15
4 3 3 4 3 6 3 9 4 7 12 14 10 10 12 13 20 24 31 38 38 41 43 42 41 41 40 39 37 36 34 34 33 32 32 30 30 29 27 26 25 22 20 19 16 20 20 20 19
2 0 2 4 4 2 4 7 10 7 7 9 12 12 13 16 13 21 25 31 38 39 41 43 41 42 40 38 36 35 37 38 35 35 34 33 33 30 31 30 28 26 24 24 21 21 23 21 20
2 1 5 7 2 3 2 9 3 5 12 16 11 12 15 14 10 12 22 24 29 37 41 41 42 42 42 41 39 31 32 34 38 37 36 35 35 33 31 32 31 29 27 22 16 16 17 10 8
3 5 4 6 7 5 4 7 6 4 3 5 8 7 10 13 9 9 12 21 22 29 31 35 40 42 44 45 40 34 28 27 29 36 35 35 33 33 32 33 34 31 26 18 14 13 17 4 4
4 9 6 3 4 4 2 4 7 12 8 5 8 8 9 12 5 6 9 16 26 33 35 36 37 40 43 42 38 35 29 24 29 35 37 34 31 31 31 32 32 32 25 18 14 18 24 25 20
8 7 8 5 4 2 4 4 7 7 11 18 17 18 17 9 8 7 8 23 33 33 34 34 36 39 41 41 41 39 33 22 19 22 24 24 28 29 29 30 31 33 29 28 25 21 18 24 24
4 4 7 5 4 2 4 3 6 6 8 17 17 16 13 9 8 8 12 13 14 20 25 30 33 36 35 33 33 26 18 15 7 8 9 14 18 21 26 28 30 32 32 30 24 17 19 23 25
5 6 3 2 2 4 1 7 4 7 10 8 11 13 13 11 12 12 14 17 20 22 11 10 19 25 28 31 32 30 20 13 5 2 3 3 3 15 21 20 24 29 24 23 19 17 20 24 27
6 7 5 4 4 4 4 3 4 4 6 7 7 7 9 12 9 12 12 13 14 18 20 14 4 13 16 20 21 20 17 14 9 9 9 12 12 9 18 24 32 36 28 19 14 12 13 16 18
4 3 3 8 2 3 3 1 4 2 6 10 12 13 14 13 12 11 12 18 20 19 19 18 13 2 10 15 19 21 20 19 17 14 9 5 9 19 5 9 12 8 9 10 9 5 8 8 7
4 5 3 4 4 3 3 2 3 6 8 11 13 13 12 11 12 11 14 19 22 25 24 20 16 13 15 18 20 26 24 20 12 4 5 7 9 5 6 6 8 11 17 10 4 2 4 11 10
2 1 7 5 4 6 4 4 4 4 4 6 7 6 8 9 12 14 16 21 21 21 23 22 18 14 13 14 19 19 11 6 4 1 4 6 4 4 9 7 4 3 5 8 8 13 15 17 17
3 5 6 5 3 2 4 4 3 5 4 3 4 6 8 9 10 9 13 13 15 19 22 21 19 18 15 13 8 5 9 7 4 1 2 1 10 11 14 17 16 14 13 13 15 16 14 14 15
Wind_Direction
152 142 146 103 58 63 348 328 227 85 326 29 126 176 176 101 188 211 143 168 163 160 158 159 152 144 137 133 128 125 120 120 113 109 107 104 103 106 111 112 115 127 122 116 114 104 98 97 106
144 134 85 80 79 52 299 288 358 278 54 93 76 95 51 96 92 125 132 163 163 159 159 156 151 147 141 137 134 127 124 123 117 113 108 106 104 102 105 114 116 128 125 123 120 117 118 122 122
139 78 76 86 96 158 232 267 110 119 64 60 84 60 112 163 92 156 170 160 163 159 159 155 154 151 145 144 138 132 129 122 116 111 106 106 107 111 108 109 119 127 133 127 126 124 121 123 120
143 17 36 80 216 254 237 315 127 128 143 101 118 87 69 211 157 183 160 162 163 159 159 157 156 153 149 148 146 137 131 126 121 113 108 105 105 110 113 115 119 122 123 124 126 119 116 121 114
65 56 56 64 278 271 255 213 143 160 125 158 87 129 60 48 169 159 161 165 165 161 161 160 159 157 154 156 147 143 136 132 124 113 109 107 106 105 109 116 117 122 127 128 128 121 117 124 118
45 88 59 263 265 253 258 187 185 145 143 122 86 91 178 160 153 161 164 165 168 163 164 163 163 161 161 156 152 148 144 136 129 123 118 114 110 108 104 104 114 124 129 136 139 133 130 135 127
113 85 191 216 265 303 232 157 183 148 141 161 144 115 326 185 170 162 165 168 168 167 166 167 167 167 164 161 158 155 152 144 138 130 124 123 115 106 99 97 99 109 115 127 134 133 138 143 144
107 94 127 247 260 289 304 136 139 112 132 112 132 179 200 177 164 166 165 168 170 172 173 173 172 171 171 170 165 163 158 155 150 141 134 130 124 110 100 91 95 103 114 119 121 122 133 143 144
123 66 227 246 193 339 115 82 11 33 118 172 166 150 162 149 162 159 162 169 176 181 181 181 179 179 179 177 174 171 167 167 164 157 150 145 138 126 109 99 95 96 103 118 124 125 134 135 137
95 114 213 230 223 229 256 161 172 135 140 229 91 65 129 142 153 154 167 177 188 191 190 188 188 186 185 185 182 180 179 179 178 173 170 163 160 153 140 100 87 104 103 110 115 125 143 149 166
158 187 202 228 228 214 272 272 183 143 218 205 177 147 146 147 161 171 183 188 192 193 193 194 194 193 192 192 190 189 190 187 188 189 190 185 185 181 188 212 266 302 306 321 313 137 114 227 198
151 224 222 262 259 272 225 189 190 178 218 165 156 162 153 164 172 184 193 196 196 199 199 199 198 199 199 197 197 197 196 195 196 196 201 204 203 205 212 223 239 250 269 277 280 284 289 279 306
182 243 211 237 280 250 305 224 205 211 51 99 143 160 171 176 180 193 198 199 199 204 206 205 202 202 204 203 203 204 202 202 201 203 209 219 223 220 220 220 224 234 244 253 265 274 278 267 276
212 233 269 267 256 240 122 294 149 230 106 124 151 173 180 186 193 195 198 203 206 209 210 209 208 207 207 209 208 208 208 207 209 210 214 221 227 230 231 236 239 243 239 245 254 254 262 247 249
267 313 340 309 319 39 124 343 236 123 129 144 176 181 186 199 199 204 203 205 211 213 213 212 212 212 211 212 213 212 212 212 214 214 218 224 229 231 236 240 242 236 240 242 251 245 246 250 248
44 46 8 294 323 157 73 262 58 145 142 170 194 200 194 200 207 212 210 212 215 217 216 217 216 217 216 216 216 215 216 217 216 216 217 221 226 231 238 243 241 237 241 246 244 237 236 246 248
1 192 223 326 347 126 92 275 253 170 160 186 198 209 219 218 214 215 217 217 219 222 221 220 220 220 219 220 221 221 222 222 223 224 223 225 230 233 235 239 235 231 239 234 242 231 235 245 255
216 196 229 182 305 21 258 260 249 214 180 196 200 210 220 225 232 217 218 224 223 226 225 226 223 223 223 223 224 226 228 230 230 231 234 233 236 239 241 242 241 233 235 231 236 232 235 243 249
169 205 286 182 250 252 223 268 264 206 206 211 210 207 225 228 234 238 229 228 229 228 227 226 223 226 222 220 223 228 231 235 236 236 237 239 238 239 241 241 238 235 234 236 238 234 228 238 245
131 281 286 290 178 208 341 299 245 200 226 216 214 221 228 241 235 241 239 242 230 232 231 227 226 226 225 223 223 221 230 237 240 241 244 244 239 238 241 238 238 238 238 238 247 268 245 227 226
200 182 225 230 344 356 11 318 339 340 329 220 225 232 238 243 233 238 241 245 247 240 239 233 231 227 226 226 223 223 226 235 236 237 240 241 238 238 243 240 242 243 243 245 263 277 272 244 156
259 203 196 163 72 225 66 259 31 336 335 332 341 300 271 255 254 235 229 241 247 246 244 241 238 233 230 229 221 219 220 221 231 233 235 235 237 242 247 248 246 249 246 241 265 266 268 256 238
228 156 175 163 163 99 308 89 306 353 341 339 341 318 298 260 220 233 233 240 247 246 245 246 245 240 237 230 226 222 221 226 233 241 248 257 252 247 246 249 251 251 240 234 229 272 261 243 230
131 79 45 54 85 54 263 119 331 357 320 326 339 343 351 9 17 17 0 349 297 259 244 245 240 240 234 230 225 222 219 227 226 252 276 267 269 268 265 257 252 252 246 242 243 263 267 263 243
104 71 27 21 31 198 42 59 228 328 357 2 345 339 347 13 27 28 17 13 10 22 10 272 243 233 231 228 225 216 202 186 173 75 78 96 329 297 290 272 263 257 250 247 259 275 277 268 240
163 159 147 165 176 212 27 74 317 358 311 324 331 315 349 4 12 27 14 13 21 24 28 24 351 237 233 221 205 192 192 196 157 113 100 77 50 357 284 264 264 254 272 278 266 276 270 238 222
171 171 161 106 357 82 135 51 272 300 334 352 348 353 359 353 10 12 10 29 34 34 32 26 25 178 188 173 163 171 175 161 142 130 119 163 286 272 246 199 238 342 279 290 288 271 245 233 193
132 152 77 11 118 132 27 81 223 341 337 343 355 352 344 353 12 18 27 31 30 31 36 41 49 82 131 148 157 155 152 151 157 192 266 263 249 227 281 227 256 269 270 275 275 139 212 174 139
112 94 53 111 107 150 143 250 232 255 307 324 343 357 2 12 21 28 29 27 31 39 44 42 56 79 101 133 138 125 112 103 14 101 219 293 266 328 295 248 229 191 104 106 116 109 109 116 118
142 142 129 123 206 71 121 230 247 254 332 315 34 45 46 43 36 40 44 40 45 41 51 52 54 64 75 90 86 8 338 354 94 98 259 83 67 95 102 94 93 98 101 111 114 114 117 115 115